Howell, MI

2:07 PM EST on February 06, 2016 (GMT -0500)
Livingston County

Weather History for KOZW - October, 2012

Change the Weather History Date:

Thursday, October 18, 2012

  Actual Average Record
Temperature  
Mean Temperature 54 °F -  
Max Temperature 60 °F 58 °F 75 °F (2007)
Min Temperature 49 °F 40 °F 28 °F (1997)
Degree Days  
Heating Degree Days 10    
Growing Degree Days 4 (Base 50)    
Moisture  
Dew Point 42 °F    
Average Humidity 63    
Maximum Humidity 88    
Minimum Humidity 32    
Precipitation  
Precipitation 0.00 in - - ()
Sea Level Pressure  
Sea Level Pressure 29.50 in    
Wind  
Wind Speed 11 mph (South)    
Max Wind Speed 23 mph    
Max Gust Speed 31 mph    
Visibility 9 miles    
Events Rain    
Averages and records for this station are not official NWS values.
T = Trace of Precipitation, MM = Missing Value Source: NWS Daily Summary

Daily Weather History Graph

Daily Weather History Graph

Search for Another Location

Airport or City:

Trip Planner

Search our weather history database for the weather conditions in past years. The results will help you decide how hot, cold, wet, or windy it might be!

Date:

Astronomy

Oct. 18, 2012 Rise Set
Actual Time 7:53 AM EDT 6:48 PM EDT
Civil Twilight 7:24 AM EDT 7:16 PM EDT
Nautical Twilight 6:51 AM EDT 7:49 PM EDT
Astronomical Twilight 6:19 AM EDT 8:21 PM EDT
Moon 11:38 AM EDT (10/18) 9:16 PM EDT (10/18)
Length of Visible Light 11h 52m
Length of Day
10h 54m
Waxing Crescent, 14% of the Moon is Illuminated
Oct 18
Waxing Crescent
Oct 21
First Quarter
Oct 29
Full
Nov 6
Last Quarter
Nov 13
New

Hourly Weather History & Observations

Time (EDT) Temp. Dew Point Humidity Pressure Visibility Wind Dir Wind Speed Gust Speed Precip Events Conditions
12:15 AM 57.6 °F 53.6 °F 87% 29.55 in 10.0 mi SSE 4.6 mph - N/A Rain Light Rain
12:34 AM 57.6 °F 53.8 °F 87% 29.56 in 7.0 mi South 5.8 mph - N/A Rain Rain
12:55 AM 57.4 °F 53.8 °F 88% 29.55 in 5.0 mi SE 10.4 mph - N/A Rain Rain
1:14 AM 57.4 °F 54.0 °F 88% 29.55 in 7.0 mi SE 9.2 mph - N/A Rain Rain
1:35 AM 57.4 °F 54.0 °F 88% 29.55 in 10.0 mi SE 10.4 mph - N/A Rain Rain
1:55 AM 57.4 °F 53.8 °F 88% 29.53 in 7.0 mi SE 9.2 mph - N/A Rain Light Rain
2:14 AM 57.2 °F 53.8 °F 88% 29.52 in 10.0 mi SE 9.2 mph - N/A Rain Light Rain
2:35 AM 57.4 °F 53.6 °F 87% 29.50 in 10.0 mi ESE 9.2 mph - N/A   Light Drizzle
2:55 AM 57.6 °F 53.6 °F 87% 29.48 in 10.0 mi SE 10.4 mph 16.1 mph N/A   Overcast
3:14 AM 57.9 °F 53.1 °F 84% 29.48 in 10.0 mi SE 12.7 mph - N/A Rain Light Rain
3:35 AM 57.7 °F 52.5 °F 83% 29.46 in 10.0 mi SE 12.7 mph - N/A Rain Rain
3:55 AM 57.2 °F 52.2 °F 83% 29.45 in 10.0 mi SE 12.7 mph - N/A   Mostly Cloudy
4:14 AM 57.2 °F 51.8 °F 82% 29.43 in 10.0 mi SE 11.5 mph - N/A   Mostly Cloudy
4:35 AM 56.8 °F 51.4 °F 82% 29.42 in 10.0 mi SE 10.4 mph - N/A   Mostly Cloudy
4:55 AM 57.0 °F 51.4 °F 82% 29.41 in 10.0 mi SE 10.4 mph - N/A   Scattered Clouds
5:14 AM 57.4 °F 50.9 °F 79% 29.40 in 10.0 mi SE 15.0 mph 19.6 mph N/A   Mostly Cloudy
5:35 AM 57.6 °F 50.0 °F 76% 29.40 in 10.0 mi SE 15.0 mph 19.6 mph N/A   Overcast
5:55 AM 57.6 °F 49.1 °F 73% 29.38 in 10.0 mi SE 11.5 mph - N/A   Overcast
6:14 AM 58.1 °F 48.0 °F 69% 29.38 in 10.0 mi SE 13.8 mph 21.9 mph N/A   Mostly Cloudy
6:35 AM 58.8 °F 46.9 °F 65% 29.37 in 10.0 mi SE 12.7 mph - N/A   Overcast
6:55 AM 59.0 °F 46.4 °F 63% 29.37 in 10.0 mi SSE 12.7 mph 18.4 mph N/A   Overcast
7:35 AM 60.1 °F 44.2 °F 56% 29.36 in 10.0 mi SSE 16.1 mph - N/A   Overcast
7:55 AM 59.9 °F 44.2 °F 56% 29.36 in 10.0 mi South 15.0 mph 26.5 mph N/A Rain Light Rain
8:14 AM 59.5 °F 44.2 °F 57% 29.36 in 10.0 mi South 15.0 mph 24.2 mph N/A   Overcast
8:35 AM 57.9 °F 46.0 °F 65% 29.38 in 7.0 mi South 19.6 mph 31.1 mph N/A Rain Rain
8:55 AM 54.9 °F 49.1 °F 81% 29.38 in 5.0 mi South 12.7 mph 19.6 mph N/A Rain Rain
9:14 AM 54.7 °F 50.5 °F 86% 29.39 in 5.0 mi SSW 18.4 mph 23.0 mph N/A Rain Rain
9:35 AM 53.6 °F 47.5 °F 80% 29.41 in 7.0 mi SW 8.1 mph 17.3 mph N/A Rain Light Rain
9:55 AM 52.7 °F 47.7 °F 83% 29.42 in 10.0 mi SW 10.4 mph 18.4 mph N/A Rain Light Rain
10:14 AM 52.0 °F 47.7 °F 85% 29.43 in 5.0 mi SSW 6.9 mph - N/A Rain Rain
10:35 AM 52.0 °F 47.5 °F 85% 29.43 in 10.0 mi SSW 10.4 mph - N/A   Overcast
10:55 AM 51.8 °F 46.8 °F 83% 29.45 in 10.0 mi SSW 11.5 mph 16.1 mph N/A Rain Light Rain
11:14 AM 50.9 °F 45.5 °F 82% 29.43 in 5.0 mi SW 8.1 mph 21.9 mph N/A Rain Light Rain
11:35 AM 51.4 °F 46.4 °F 83% 29.46 in 10.0 mi SSW 9.2 mph - N/A   Overcast
11:55 AM 51.8 °F 46.0 °F 81% 29.47 in 10.0 mi SSW 11.5 mph - N/A   Overcast
12:14 PM 51.4 °F 44.4 °F 77% 29.48 in 10.0 mi SSW 10.4 mph 20.7 mph N/A   Mostly Cloudy
12:35 PM 51.1 °F 42.4 °F 72% 29.48 in 10.0 mi SW 17.3 mph 26.5 mph N/A   Overcast
12:54 PM 53.4 °F 41.4 °F 64% 29.49 in 10.0 mi SW 23.0 mph 26.5 mph N/A   Mostly Cloudy
1:15 PM 52.5 °F 39.4 °F 61% 29.50 in 10.0 mi SW 18.4 mph - N/A   Overcast
1:35 PM 54.7 °F 38.7 °F 55% 29.50 in 10.0 mi SW 17.3 mph 25.3 mph N/A   Mostly Cloudy
1:54 PM 56.3 °F 36.1 °F 47% 29.51 in 10.0 mi SW 16.1 mph 26.5 mph N/A   Scattered Clouds
2:15 PM 56.5 °F 34.2 °F 43% 29.51 in 10.0 mi SW 17.3 mph 27.6 mph N/A   Scattered Clouds
2:35 PM 57.6 °F 33.1 °F 40% 29.52 in 10.0 mi SW 15.0 mph 25.3 mph N/A   Scattered Clouds
2:54 PM 58.3 °F 31.1 °F 36% 29.52 in 10.0 mi SW 15.0 mph 25.3 mph N/A   Clear
3:15 PM 58.1 °F 29.8 °F 34% 29.53 in 10.0 mi South 19.6 mph 26.5 mph N/A   Scattered Clouds
3:35 PM 57.7 °F 30.7 °F 36% 29.53 in 10.0 mi SSW 12.7 mph 18.4 mph N/A   Scattered Clouds
3:54 PM 57.6 °F 30.0 °F 35% 29.53 in 10.0 mi South 13.8 mph 20.7 mph N/A   Scattered Clouds
4:15 PM 58.1 °F 28.4 °F 32% 29.53 in 10.0 mi SSW 16.1 mph 25.3 mph N/A   Scattered Clouds
4:35 PM 59.0 °F 29.5 °F 33% 29.53 in 10.0 mi SSW 11.5 mph 18.4 mph N/A   Mostly Cloudy
4:54 PM 58.1 °F 29.5 °F 34% 29.54 in 10.0 mi SSW 16.1 mph 28.8 mph N/A   Mostly Cloudy
5:15 PM 56.8 °F 30.4 °F 37% 29.55 in 10.0 mi South 12.7 mph 20.7 mph N/A   Scattered Clouds
5:35 PM 56.3 °F 32.0 °F 40% 29.56 in 10.0 mi South 15.0 mph - N/A   Scattered Clouds
5:54 PM 55.4 °F 32.4 °F 42% 29.56 in 10.0 mi South 10.4 mph - N/A   Scattered Clouds
6:15 PM 54.9 °F 33.8 °F 45% 29.57 in 10.0 mi SSE 10.4 mph - N/A   Clear
6:34 PM 54.5 °F 33.3 °F 45% 29.58 in 10.0 mi SSE 9.2 mph - N/A   Clear
6:55 PM 53.1 °F 33.8 °F 48% 29.59 in 10.0 mi SSE 9.2 mph - N/A   Clear
7:15 PM 53.1 °F 33.8 °F 48% 29.59 in 10.0 mi SSE 11.5 mph - N/A   Clear
7:34 PM 53.1 °F 32.5 °F 46% 29.60 in 10.0 mi South 8.1 mph - N/A   Clear
7:55 PM 52.0 °F 32.0 °F 47% 29.60 in 10.0 mi South 6.9 mph - N/A   Clear
8:15 PM 52.5 °F 32.0 °F 46% 29.61 in 10.0 mi SSE 10.4 mph - N/A   Mostly Cloudy
8:34 PM 52.0 °F 32.0 °F 47% 29.61 in 10.0 mi South 9.2 mph - N/A   Mostly Cloudy
8:55 PM 51.8 °F 32.0 °F 47% 29.62 in 10.0 mi South 6.9 mph - N/A   Mostly Cloudy
9:15 PM 51.3 °F 32.2 °F 48% 29.62 in 10.0 mi SSE 6.9 mph - N/A   Scattered Clouds
9:34 PM 51.1 °F 32.0 °F 48% 29.62 in 10.0 mi South 8.1 mph - N/A   Scattered Clouds
9:55 PM 50.9 °F 32.0 °F 48% 29.63 in 10.0 mi SSE 9.2 mph - N/A   Clear
10:35 PM 49.5 °F 32.5 °F 52% 29.64 in 10.0 mi South 6.9 mph - N/A   Clear
10:55 PM 49.5 °F 32.9 °F 53% 29.64 in 10.0 mi South 4.6 mph - N/A   Mostly Cloudy
11:14 PM 49.5 °F 33.3 °F 54% 29.65 in 10.0 mi South 3.5 mph - N/A   Overcast
11:35 PM 49.3 °F 34.0 °F 56% 29.65 in 10.0 mi South 3.5 mph - N/A   Overcast
11:55 PM 49.1 °F 34.2 °F 56% 29.64 in 10.0 mi South 3.5 mph - N/A   Overcast